Torna al catalogo

ARABSAT 1A

AttivoComunicazioniGEO
NORAD 15560·PAYLOAD·🇦🇪 UAE🇸🇦 Saudi Arabia

Lanciato Feb 8, 1985 da Guiana Space Centre

Loading…

TLE

AggiornatoSource: Space-Track

Epoca: Sep 13, 2026, 20:50 UTC

1 15560U 85015A   26256.86858917  .00000119  00000-0  00000+0 0  9999
2 15560  11.7375 330.6732 0035424 239.5136 126.5185  1.00185195126900

Traccia ARABSAT 1A in tempo reale con AllMySat

Download on the App Store